Change the Weather History Date:

Friday, October 26, 2012

  Actual Average Record
Temperature  
Mean Temperature 14 °F -  
Max Temperature 27 °F 45 °F 66 °F (1977)
Min Temperature 1 °F 20 °F 1 °F (2012)
Degree Days  
Heating Degree Days 51 32  
Month to date heating degree days 703 724  
Since 1 July heating degree days 1809 2022  
Cooling Degree Days 0 0  
Month to date cooling degree days 0 0  
Year to date cooling degree days 0 0  
Moisture  
Dew Point 4 °F    
Average Humidity 59    
Maximum Humidity 88    
Minimum Humidity 29    
Precipitation  
Precipitation T in 0.03 in 0.60 in (2011)
Month to date precipitation 0.75 0.76  
Year to date precipitation 10.14 10.79  
Sea Level Pressure  
Sea Level Pressure 30.25 in    
Wind  
Wind Speed 6 mph (North)    
Max Wind Speed 15 mph    
Max Gust Speed 20 mph    
Visibility 9 miles    
Events Snow    
T = Trace of Precipitation, MM = Missing Value Source: NWS Daily Summary

Daily Weather History Graph

Daily Weather History Graph

Search for Another Location

Airport or City:

Trip Planner

Search our weather history database for the weather conditions in past years. The results will help you decide how hot, cold, wet, or windy it might be!

Date:

Astronomy

Oct. 26, 2012 Rise Set
Actual Time 7:27 AM MDT 6:10 PM MDT
Civil Twilight 6:59 AM MDT 6:38 PM MDT
Nautical Twilight 6:28 AM MDT 7:09 PM MDT
Astronomical Twilight 5:57 AM MDT 7:40 PM MDT
Moon 4:27 PM MDT (10/26) 4:27 AM MDT (10/26)
Length of Visible Light 11h 38m
Length of Day
10h 43m
Waxing Gibbous, 91% of the Moon is Illuminated
Oct 26
Waxing Gibbous
Oct 29
Full
Nov 6
Last Quarter
Nov 13
New
Nov 20
First Quarter

Hourly Weather History & Observations

Time (MDT) Temp. Windchill Dew Point Humidity Pressure Visibility Wind Dir Wind Speed Gust Speed Precip Events Conditions
12:18 AM 15.8 °F 5.1 °F 10.4 °F 79% 30.16 in 2.5 mi NW 8.1 mph - 0.00 in Snow Light Snow
12:20 AM 15.8 °F 7.2 °F 10.4 °F 79% 30.16 in 4.0 mi Variable 5.8 mph - 0.00 in Snow Light Snow
12:30 AM 14.0 °F 5.1 °F 10.4 °F 86% 30.16 in 9.0 mi Variable 5.8 mph - 0.00 in   Overcast
12:53 AM 14.0 °F 5.1 °F 8.1 °F 77% 30.16 in 10.0 mi Variable 5.8 mph - 0.00 in   Mostly Cloudy
1:53 AM 12.9 °F -2.2 °F 8.1 °F 81% 30.19 in 6.0 mi WNW 13.8 mph 18.4 mph 0.00 in Snow Light Snow
2:04 AM 14.0 °F 2.0 °F 8.6 °F 79% 30.20 in 1.8 mi NNW 9.2 mph - 0.00 in Snow Light Snow
2:14 AM 12.2 °F -0.2 °F 8.6 °F 85% 30.21 in 3.0 mi North 9.2 mph - 0.00 in Snow Light Snow
2:53 AM 10.9 °F 1.4 °F 7.0 °F 84% 30.23 in 10.0 mi North 5.8 mph - 0.00 in   Overcast
3:23 AM 10.4 °F -0.4 °F 6.8 °F 85% 30.22 in 10.0 mi NNW 6.9 mph - N/A   Partly Cloudy
3:53 AM 9.0 °F - 5.0 °F 84% 30.26 in 10.0 mi Calm Calm - N/A   Mostly Cloudy
3:58 AM 8.6 °F 0.1 °F 5.0 °F 85% 30.23 in 10.0 mi NNE 4.6 mph - N/A   Scattered Clouds
4:53 AM 6.1 °F -4.3 °F 3.0 °F 87% 30.30 in 10.0 mi NE 5.8 mph - N/A   Clear
5:37 AM 5.0 °F -5.6 °F 1.4 °F 85% 30.27 in 10.0 mi NNE 5.8 mph - N/A   Mostly Cloudy
5:53 AM 5.0 °F -5.6 °F 1.9 °F 87% 30.34 in 10.0 mi NE 5.8 mph - N/A   Mostly Cloudy
6:02 AM 5.0 °F -2.1 °F 1.4 °F 85% 30.27 in 10.0 mi NE 3.5 mph - N/A   Scattered Clouds
6:53 AM 3.0 °F -6.4 °F -0.9 °F 84% 30.36 in 10.0 mi NE 4.6 mph - N/A   Clear
7:53 AM 3.0 °F -10.5 °F -0.9 °F 84% 30.38 in 10.0 mi NNE 8.1 mph - N/A   Clear
8:53 AM 12.0 °F - 3.9 °F 70% 30.35 in 10.0 mi Calm Calm - N/A   Clear
9:53 AM 16.0 °F 8.8 °F 7.0 °F 68% 30.36 in 10.0 mi NNW 4.6 mph - N/A   Clear
10:53 AM 19.0 °F 12.3 °F 6.1 °F 57% 30.35 in 10.0 mi North 4.6 mph - N/A   Clear
11:53 AM 19.9 °F - 6.1 °F 55% 30.34 in 10.0 mi Calm Calm - N/A   Clear
12:53 PM 23.0 °F 18.4 °F 3.0 °F 42% 30.29 in 10.0 mi North 3.5 mph - N/A   Clear
1:53 PM 26.1 °F 17.6 °F 1.0 °F 34% 30.24 in 10.0 mi North 8.1 mph - N/A   Clear
2:53 PM 26.1 °F 16.8 °F 1.9 °F 35% 30.23 in 10.0 mi NW 9.2 mph - N/A   Clear
3:53 PM 26.1 °F 17.6 °F -2.0 °F 30% 30.23 in 10.0 mi NW 8.1 mph 16.1 mph N/A   Clear
4:53 PM 26.1 °F 15.0 °F 1.9 °F 35% 30.23 in 10.0 mi NW 12.7 mph - N/A   Clear
5:53 PM 21.9 °F 11.0 °F 3.9 °F 46% 30.25 in 10.0 mi North 10.4 mph - N/A   Clear
6:53 PM 18.0 °F 8.7 °F 3.9 °F 54% 30.29 in 10.0 mi NE 6.9 mph - N/A   Clear
7:53 PM 14.0 °F 6.5 °F 3.0 °F 62% 30.32 in 10.0 mi NE 4.6 mph - N/A   Clear
8:53 PM 10.0 °F -1.9 °F 1.9 °F 70% 30.28 in 10.0 mi ENE 8.1 mph - N/A   Clear
9:53 PM 12.9 °F 2.6 °F 1.9 °F 62% 30.22 in 10.0 mi NE 6.9 mph - N/A   Clear
10:53 PM 16.0 °F 6.3 °F 3.0 °F 57% 30.15 in 10.0 mi NE 6.9 mph - N/A   Overcast
11:53 PM 19.9 °F 10.1 °F 3.0 °F 48% 30.11 in 10.0 mi NNE 8.1 mph - N/A   Overcast